Home   Weather   Bahawalpur   Past weeks
Flag for Pakistan

Past Weather in Bahawalpur, Pakistan — Yesterday and Last 2 Weeks

Now
48 °F

Fog.


Feels Like: 48 °F
Forecast: 66 / 45 °F
Wind: No wind

Location: Multan Airport

Current Time: Jan 24, 2019 at 5:17:36 am

Latest Report: Jan 24, 2019 at 4:55 am


Visibility: 0 mi

Pressure: 30.12 "Hg

Humidity: 100%

Dew Point: 48 °F

Location of BahawalpurLocation

Past Weather in Bahawalpur — Graph

°F

Bahawalpur Temperature Yesterday

Maximum temperature yesterday: 61 °F (at 3:30 pm)
Minimum temperature yesterday: 48 °F (at 2:30 am)
Average temperature yesterday: 52 °F

High & Low Weather Summary for the Past Weeks

 TemperatureHumidityPressure
High72 °F (Jan 9, 3:00 pm)100% (Jan 11, 4:25 am)30.24 "Hg (Jan 11, 4:25 am)
Low41 °F (Jan 13, 7:30 am)35% (Jan 16, 2:30 pm)29.86 "Hg (Jan 21, 3:00 pm)
Average56 °F72%30.04 "Hg
* Reported Jan 9 2:00 am — Jan 24 2:00 am, Bahawalpur. Weather by CustomWeather, © 2019

Note: Actual official high and low records may vary slightly from our data, if they occured in-between our weather recording intervals... More about our weather records

Advertising

Bahawalpur Weather History for the Previous 24 Hours

Scroll right to see more
 ConditionsComfort  
Time TempWeatherWind HumidityBarometerVisibility
2:00 am
Thu, Jan 24
50 °FFog.No wind100%30.12 "Hg0 mi
1:05 am50 °FFog.No wind100%30.12 "Hg0 mi
1:00 am50 °FFog.No wind100%30.12 "Hg1 mi
12:35 am50 °FFog.No wind100%30.12 "Hg1 mi
12:00 am50 °FFog.No wind94%30.12 "Hg1 mi
11:00 pm
Wed, Jan 23
52 °FFog.No wind94%30.12 "Hg1 mi
10:30 pm52 °FFog.No wind88%30.12 "Hg1 mi
10:00 pm52 °FFog.No wind88%30.12 "Hg1 mi
9:30 pm52 °FFog.No wind88%30.12 "Hg1 mi
9:00 pm52 °FFog.No wind88%30.12 "Hg1 mi
8:30 pm54 °FFog.No wind88%30.12 "Hg1 mi
8:00 pm54 °FFog.No wind88%30.12 "Hg1 mi
7:25 pm54 °FFog.No wind88%30.09 "Hg1 mi
6:55 pm55 °FFog.No wind88%30.09 "Hg1 mi
6:25 pm55 °FFog.No wind88%30.09 "Hg1 mi
6:00 pm57 °FFog.No wind82%30.09 "Hg1 mi
5:25 pm59 °FPassing clouds.No wind72%30.07 "Hg2 mi
3:55 pm61 °FPassing clouds.5 mph68%30.07 "Hg2 mi
3:30 pm61 °FPassing clouds.5 mph68%30.07 "Hg2 mi
2:55 pm59 °FScattered clouds.5 mph72%30.09 "Hg2 mi
2:30 pm59 °FScattered clouds.7 mph77%30.09 "Hg2 mi
2:00 pm57 °FScattered clouds.7 mph77%30.09 "Hg2 mi
1:30 pm55 °FFog.7 mph82%30.09 "Hg2 mi
1:00 pm54 °FFog.5 mph88%30.09 "Hg1 mi
12:30 pm54 °FFog.5 mph88%30.12 "Hg1 mi
12:00 pm52 °FFog.5 mph94%30.12 "Hg1 mi
11:30 am52 °FFog.5 mph94%30.12 "Hg1 mi
11:00 am50 °FFog.5 mph100%30.12 "Hg1 mi
10:30 am50 °FFog.No wind100%30.12 "Hg1 mi
10:00 am48 °FFog.5 mph100%30.12 "Hg0 mi
9:30 am48 °FFog.5 mph100%30.09 "Hg0 mi
9:00 am48 °FFog.5 mph100%30.09 "Hg0 mi
8:30 am48 °FFog.No wind100%30.09 "Hg0 mi
8:00 am48 °FFog.No wind100%30.07 "Hg0 mi
7:30 am48 °FFog.No wind100%30.07 "Hg0 mi
7:00 am48 °FFog.No wind100%30.04 "Hg0 mi
6:30 am48 °FFog.No wind100%30.04 "Hg0 mi
6:00 am48 °FFog.No wind100%30.04 "Hg0 mi
5:30 am48 °FFog.No wind100%30.01 "Hg0 mi
5:00 am48 °FFog.No wind100%30.01 "Hg0 mi
Weather by CustomWeather, © 2019

See weather overview